Find Starlink 30369

NORAD ID: 57781 Int'l Des: 2023-134 Owner: SPXS Country: US Constellation: starlink operational
LEOCIRCULAR

現在のビュー

3D地球を読み込み中...

About Starlink 30369

Starlink 30369 (NORAD 57781) is a starlink constellation satellite (v2 mini) launched Sep 4, 2023 by SPXS of US. It operates in LEO, CIRCULAR orbit with a mass of 730.00 kg.

Starlink 30369について

説明を読み込み中...

次回通過

Passes for default location (London). Set your location on the main map for personalized predictions.

高度履歴

Loading altitude history...

軌道要素

1 57781U 23134L 26175.10886115 -.00000754 00000-0 -17896-4 0 9995
2 57781 43.0025 313.3606 0000949 291.6217 68.4534 15.27571556155786
Epoch: Jun 24, 2026 • Age: 26 hours

現在のステータス

高度 494.0 km
速度 7.62 km/s
衛星直下点 -38.14°S, 161.1°W
打ち上げ日 Sep 4, 2023
運用期間 2.8 years
タイプ internet

技術仕様

分類 Payload
質量 730.00 kg
乾燥質量 700.00 kg
総質量 730.00 kg
長さ 0.30 m
直径 4.10 m
スパン 29.00 m
形状 Box + pan
製造者 SPXS
バスタイプ Starlink V2M
フェーズステータス In Orbit
所有者/国 SPXS/US

Most Searched